• In Hungary
  • List of Countries
  • For 7 days
  • Water Temperature
  • Satellite Maps
  • Weather Map
  • News
  • Weather Widgets
  • user-avatar
    Login

    Hourly Weather Tibissa

    Today, 22 July, Sunday

    Time Temperature Precipitation Wind Pressure Humidity
    00:00 +32°C° 0 mm 2 mps 687 mmHg 31%
    01:00 +31°C° 0 mm 2 mps 686 mmHg 32%
    02:00 +31°C° 0 mm 2 mps 686 mmHg 32%
    03:00 +31°C° 0 mm 2 mps 686 mmHg 33%
    04:00 +30°C° 0 mm 2 mps 686 mmHg 33%
    05:00 +30°C° 0 mm 3 mps 686 mmHg 31%
    06:00 +31°C° 0 mm 3 mps 686 mmHg 28%
    07:00 +32°C° 0 mm 4 mps 687 mmHg 25%
    08:00 +34°C° 0 mm 6 mps 687 mmHg 21%
    09:00 +38°C° 0 mm 8 mps 687 mmHg 17%
    10:00 +40°C° 0 mm 10 mps 688 mmHg 12%
    11:00 +42°C° 0 mm 10 mps 688 mmHg 12%
    12:00 +42°C° 0 mm 9 mps 688 mmHg 12%
    13:00 +43°C° 0 mm 8 mps 688 mmHg 11%
    14:00 +43°C° 0 mm 8 mps 687 mmHg 11%
    15:00 +43°C° 0 mm 7 mps 687 mmHg 11%
    16:00 +42°C° 0 mm 6 mps 686 mmHg 12%
    17:00 +41°C° 0 mm 6 mps 686 mmHg 14%
    18:00 +40°C° 0 mm 7 mps 686 mmHg 16%
    19:00 +39°C° 0 mm 7 mps 686 mmHg 18%
    20:00 +38°C° 0 mm 7 mps 686 mmHg 24%
    21:00 +35°C° 0 mm 6 mps 686 mmHg 30%
    22:00 +33°C° 0 mm 6 mps 687 mmHg 36%
    23:00 +32°C° 0 mm 5 mps 686 mmHg 38%

    Tomorrow, 23 July, Monday

    Time Temperature Precipitation Wind Pressure Humidity
    00:00 +30°C° 0 mm 4 mps 686 mmHg 39%
    01:00 +30°C° 0 mm 4 mps 686 mmHg 41%
    02:00 +29°C° 0 mm 3 mps 686 mmHg 40%
    03:00 +29°C° 0 mm 3 mps 686 mmHg 40%
    04:00 +29°C° 0 mm 2 mps 686 mmHg 39%
    05:00 +28°C° 0 mm 2 mps 686 mmHg 39%
    06:00 +28°C° 0 mm 2 mps 686 mmHg 39%
    07:00 +28°C° 0 mm 2 mps 686 mmHg 39%
    08:00 +29°C° 0 mm 3 mps 686 mmHg 36%
    09:00 +30°C° 0 mm 3 mps 687 mmHg 34%
    10:00 +31°C° 0 mm 3 mps 687 mmHg 31%
    11:00 +33°C° 0 mm 3 mps 687 mmHg 31%
    12:00 +33°C° 0 mm 3 mps 687 mmHg 31%
    13:00 +34°C° 0 mm 3 mps 687 mmHg 31%
    14:00 +34°C° 0 mm 3 mps 687 mmHg 29%
    15:00 +35°C° 0 mm 4 mps 687 mmHg 28%
    16:00 +36°C° 0 mm 5 mps 686 mmHg 27%
    17:00 +34°C° 0 mm 5 mps 686 mmHg 29%
    18:00 +33°C° 0 mm 6 mps 686 mmHg 31%
    19:00 +32°C° 0 mm 7 mps 686 mmHg 33%
    20:00 +30°C° 0 mm 6 mps 686 mmHg 35%
    21:00 +28°C° 0 mm 6 mps 687 mmHg 38%
    22:00 +27°C° 0 mm 5 mps 687 mmHg 41%
    23:00 +26°C° 0 mm 4 mps 687 mmHg 42%

    Day after tomorrow, 24 July, Tuesday

    Time Temperature Precipitation Wind Pressure Humidity
    00:00 +25°C° 0 mm 3 mps 686 mmHg 43%
    01:00 +25°C° 0 mm 3 mps 686 mmHg 43%
    02:00 +24°C° 0 mm 2 mps 686 mmHg 45%
    03:00 +24°C° 0 mm 2 mps 686 mmHg 46%
    04:00 +23°C° 0 mm 1 mps 685 mmHg 47%
    05:00 +23°C° 0 mm 1 mps 686 mmHg 45%
    06:00 +23°C° 0 mm 2 mps 686 mmHg 43%
    07:00 +24°C° 0 mm 2 mps 686 mmHg 41%
    08:00 +25°C° 0 mm 2 mps 686 mmHg 34%
    09:00 +27°C° 0 mm 3 mps 687 mmHg 28%
    10:00 +29°C° 0 mm 3 mps 687 mmHg 21%
    11:00 +32°C° 0 mm 4 mps 687 mmHg 18%
    12:00 +33°C° 0 mm 5 mps 687 mmHg 16%
    13:00 +35°C° 0 mm 5 mps 687 mmHg 13%
    14:00 +35°C° 0 mm 6 mps 687 mmHg 13%
    15:00 +36°C° 0 mm 6 mps 687 mmHg 12%
    16:00 +38°C° 0 mm 7 mps 687 mmHg 11%
    17:00 +36°C° 0 mm 7 mps 686 mmHg 13%
    18:00 +35°C° 0 mm 7 mps 686 mmHg 15%
    19:00 +34°C° 0 mm 6 mps 686 mmHg 16%
    20:00 +32°C° 0 mm 5 mps 686 mmHg 20%
    21:00 +30°C° 0 mm 4 mps 687 mmHg 23%
    22:00 +29°C° 0 mm 3 mps 687 mmHg 26%
    23:00 +28°C° 0 mm 2 mps 687 mmHg 29%

    25 July, Wednesday

    Time Temperature Precipitation Wind Pressure Humidity
    00:00 +27°C° 0 mm 1 mps 686 mmHg 31%
    01:00 +24°C° 0 mm 0 mps 686 mmHg 33%
    02:00 +24°C° 0 mm 0 mps 686 mmHg 34%
    03:00 +25°C° 0 mm 1 mps 685 mmHg 34%
    04:00 +25°C° 0 mm 1 mps 685 mmHg 34%
    05:00 +26°C° 0 mm 1 mps 685 mmHg 32%
    06:00 +27°C° 0 mm 1 mps 686 mmHg 29%
    07:00 +27°C° 0 mm 1 mps 686 mmHg 27%
    08:00 +29°C° 0 mm 1 mps 686 mmHg 24%
    09:00 +30°C° 0 mm 1 mps 687 mmHg 21%
    10:00 +32°C° 0 mm 1 mps 687 mmHg 19%
    11:00 +34°C° 0 mm 2 mps 687 mmHg 17%
    12:00 +35°C° 0 mm 3 mps 687 mmHg 16%
    13:00 +36°C° 0 mm 3 mps 687 mmHg 14%
    14:00 +37°C° 0 mm 4 mps 687 mmHg 13%
    15:00 +39°C° 0 mm 5 mps 687 mmHg 13%
    16:00 +39°C° 0 mm 5 mps 686 mmHg 12%
    17:00 +39°C° 0 mm 6 mps 686 mmHg 13%
    18:00 +38°C° 0 mm 6 mps 686 mmHg 13%
    19:00 +38°C° 0 mm 6 mps 686 mmHg 14%
    20:00 +35°C° 0 mm 5 mps 686 mmHg 17%
    21:00 +34°C° 0 mm 4 mps 686 mmHg 19%
    22:00 +32°C° 0 mm 4 mps 686 mmHg 22%
    23:00 +30°C° 0 mm 3 mps 686 mmHg 25%

    26 July, Thursday

    Time Temperature Precipitation Wind Pressure Humidity
    00:00 +30°C° 0 mm 3 mps 686 mmHg 29%
    01:00 +29°C° 0 mm 2 mps 685 mmHg 32%
    02:00 +28°C° 0 mm 2 mps 685 mmHg 35%
    03:00 +27°C° 0 mm 1 mps 685 mmHg 37%
    04:00 +27°C° 0 mm 1 mps 685 mmHg 40%
    05:00 +27°C° 0 mm 1 mps 685 mmHg 39%
    06:00 +27°C° 0 mm 1 mps 685 mmHg 37%
    07:00 +28°C° 0 mm 1 mps 685 mmHg 36%
    08:00 +29°C° 0 mm 1 mps 686 mmHg 32%
    09:00 +30°C° 0 mm 1 mps 686 mmHg 28%
    10:00 +32°C° 0 mm 2 mps 686 mmHg 23%
    11:00 +34°C° 0 mm 2 mps 686 mmHg 21%
    12:00 +35°C° 0 mm 2 mps 686 mmHg 19%
    13:00 +36°C° 0 mm 2 mps 686 mmHg 17%
    14:00 +36°C° 0 mm 2 mps 686 mmHg 16%
    15:00 +37°C° 0 mm 3 mps 686 mmHg 15%
    16:00 +38°C° 0 mm 4 mps 686 mmHg 15%
    17:00 +37°C° 0 mm 4 mps 686 mmHg 16%
    18:00 +36°C° 0 mm 5 mps 686 mmHg 17%
    19:00 +35°C° 0 mm 6 mps 686 mmHg 18%
    20:00 +34°C° 0 mm 6 mps 686 mmHg 21%
    21:00 +32°C° 0 mm 6 mps 686 mmHg 24%
    22:00 +30°C° 0 mm 6 mps 686 mmHg 28%
    23:00 +29°C° 0 mm 5 mps 686 mmHg 31%

    27 July, Friday

    Time Temperature Precipitation Wind Pressure Humidity
    00:00 +28°C° 0 mm 4 mps 686 mmHg 33%
    01:00 +27°C° 0 mm 3 mps 686 mmHg 36%
    02:00 +27°C° 0 mm 3 mps 686 mmHg 38%
    03:00 +26°C° 0 mm 2 mps 686 mmHg 39%
    04:00 +26°C° 0 mm 1 mps 685 mmHg 40%
    05:00 +26°C° 0 mm 1 mps 686 mmHg 40%
    06:00 +26°C° 0 mm 1 mps 686 mmHg 39%
    07:00 +26°C° 0 mm 1 mps 686 mmHg 39%
    08:00 +28°C° 0 mm 1 mps 686 mmHg 36%
    09:00 +29°C° 0 mm 1 mps 687 mmHg 33%
    10:00 +30°C° 0 mm 1 mps 687 mmHg 30%
    11:00 +31°C° 0 mm 1 mps 687 mmHg 27%
    12:00 +33°C° 0 mm 1 mps 687 mmHg 24%
    13:00 +34°C° 0 mm 1 mps 687 mmHg 20%
    14:00 +35°C° 0 mm 2 mps 687 mmHg 18%
    15:00 +36°C° 0 mm 2 mps 686 mmHg 16%
    16:00 +37°C° 0 mm 3 mps 686 mmHg 14%
    17:00 +37°C° 0 mm 4 mps 686 mmHg 15%
    18:00 +36°C° 0 mm 4 mps 686 mmHg 15%
    19:00 +36°C° 0 mm 5 mps 686 mmHg 15%
    20:00 +34°C° 0 mm 5 mps 687 mmHg 19%
    21:00 +33°C° 0 mm 5 mps 687 mmHg 23%
    22:00 +30°C° 0 mm 5 mps 687 mmHg 27%
    23:00 +29°C° 0 mm 4 mps 687 mmHg 31%
    Show more